GW5362 Weather Reports


time (UTC)temp
C
wind
direction
speed
KPH
gust
KPH
rain 1hr
cm
rain 24hr
cm
rain mn
cm
humidity
%
barometer
mb
20260507162503 13 83 0.0 9.7 0.00 0.03 0.03 58 1011.6
20260507162003 13 34 0.0 8.0 0.00 0.03 0.03 58 1011.7
20260507161513 13 76 0.0 11.3 0.00 0.03 0.03 58 1011.8
20260507161007 12 75 0.0 11.3 0.00 0.03 0.03 57 1011.9
20260507160500 12 80 4.8 11.3 0.00 0.03 0.03 58 1011.8
20260507160004 12 85 0.0 11.3 0.00 0.03 0.03 58 1011.9
20260507155503 12 98 1.6 11.3 0.00 0.03 0.03 57 1012.0
20260507155002 12 98 1.6 16.1 0.00 0.03 0.03 59 1011.9
20260507154508 12 40 4.8 16.1 0.00 0.03 0.03 59 1012.1
20260507154002 12 55 6.4 16.1 0.00 0.03 0.03 59 1011.9
20260507153504 12 78 0.0 12.9 0.00 0.03 0.03 60 1012.2
20260507153008 12 88 4.8 12.9 0.00 0.03 0.03 59 1012.1
20260507152504 12 94 0.0 8.0 0.00 0.03 0.03 63 1012.2
20260507152003 12 80 3.2 8.0 0.00 0.03 0.03 65 1012.2
20260507151504 12 53 0.0 3.2 0.00 0.03 0.03 63 1012.3
20260507151006 11 52 0.0 3.2 0.00 0.03 0.03 65 1012.3
20260507150504 11 47 0.0 1.6 0.00 0.03 0.03 67 1012.4
20260507150022 11 47 0.0 4.8 0.00 0.05 0.03 66 1012.4
20260507145502 11 46 0.0 4.8 0.00 0.05 0.03 66 1012.5
20260507145002 11 46 0.0 3.2 0.00 0.05 0.03 66 1012.6
20260507144506 11 46 0.0 3.2 0.00 0.05 0.03 68 1012.7
20260507144003 11 47 0.0 3.2 0.00 0.05 0.03 68 1012.9
20260507143503 11 47 0.0 4.8 0.00 0.08 0.03 67 1012.9
20260507143009 11 46 0.0 4.8 0.00 0.10 0.03 67 1012.9
20260507142506 11 40 0.0 6.4 0.00 0.10 0.03 67 1012.9
20260507142004 11 40 0.0 8.0 0.00 0.13 0.03 68 1012.8
20260507141511 11 253 0.0 8.0 0.00 0.15 0.03 68 1013.0
20260507141007 11 74 0.0 3.2 0.00 0.15 0.03 69 1013.2
20260507140507 11 70 0.0 6.4 0.00 0.15 0.03 70 1013.1
20260507140008 11 71 1.6 6.4 0.00 0.15 0.03 71 1013.1
20260507135504 11 79 0.0 4.8 0.00 0.15 0.03 72 1013.2
20260507135011 11 82 0.0 1.6 0.00 0.18 0.03 70 1013.3
20260507134509 11 80 0.0 0.0 0.00 0.18 0.03 74 1013.3
20260507134003 11 80 0.0 0.0 0.00 0.18 0.03 74 1013.4
20260507133503 11 80 0.0 4.8 0.00 0.18 0.03 70 1013.4
20260507133008 11 80 0.0 4.8 0.00 0.20 0.03 70 1013.4
20260507132502 11 52 0.0 1.6 0.00 0.20 0.03 69 1013.3
20260507132002 11 51 0.0 6.4 0.00 0.23 0.03 72 1013.3
20260507131510 11 51 0.0 6.4 0.00 0.25 0.03 72 1013.2
20260507131003 11 65 0.0 4.8 0.00 0.28 0.03 72 1013.3
20260507130507 11 64 0.0 6.4 0.00 0.28 0.03 70 1013.2
20260507130018 11 68 0.0 6.4 0.00 0.30 0.03 68 1013.2
20260507125508 11 67 1.6 9.7 0.00 0.33 0.03 69 1013.2
20260507125004 11 189 1.6 9.7 0.00 0.33 0.03 70 1013.1
20260507124515 11 51 0.0 9.7 0.00 0.33 0.03 74 1013.0
20260507124006 11 70 0.0 8.0 0.00 0.33 0.03 74 1013.2
20260507123503 11 52 0.0 4.8 0.00 0.33 0.03 77 1013.2
20260507123017 11 38 0.0 3.2 0.00 0.33 0.03 76 1013.3
20260507122504 11 20 0.0 3.2 0.00 0.33 0.03 75 1013.3
20260507122003 11 19 0.0 3.2 0.00 0.33 0.03 75 1013.2
20260507121508 11 337 0.0 3.2 0.00 0.33 0.03 77 1013.2
20260507121003 11 323 0.0 6.4 0.00 0.33 0.03 76 1013.1
20260507120503 11 46 0.0 6.4 0.00 0.33 0.03 78 1013.1
20260507120005 11 349 0.0 4.8 0.00 0.33 0.03 76 1013.1
20260507115503 11 111 0.0 4.8 0.00 0.33 0.03 80 1013.0
20260507115005 11 111 0.0 4.8 0.00 0.33 0.03 80 1013.0
20260507114520 11 122 0.0 6.4 0.00 0.33 0.03 81 1013.0
20260507114006 11 121 0.0 6.4 0.00 0.33 0.03 82 1012.8
20260507113505 11 39 0.0 8.0 0.00 0.33 0.03 83 1012.8
20260507113026 11 26 0.0 11.3 0.00 0.33 0.03 84 1012.7
20260507112504 11 236 0.0 11.3 0.00 0.33 0.03 87 1012.7
20260507112004 11 67 0.0 3.2 0.00 0.33 0.03 89 1012.4
20260507111507 11 67 0.0 3.2 0.00 0.33 0.03 89 1012.5
20260507111003 11 68 0.0 1.6 0.00 0.33 0.03 89 1012.4
20260507110502 11 68 0.0 3.2 0.00 0.33 0.03 89 1012.4
20260507110012 11 68 0.0 3.2 0.00 0.33 0.03 89 1012.3
20260507105504 11 76 0.0 0.0 0.00 0.33 0.03 89 1012.3
20260507105003 11 76 0.0 0.0 0.00 0.33 0.03 89 1012.3
20260507104516 11 76 0.0 0.0 0.00 0.33 0.03 89 1012.3
20260507104006 11 76 0.0 0.0 0.00 0.33 0.03 89 1012.1
20260507103506 11 76 0.0 0.0 0.00 0.33 0.03 89 1012.0
20260507103010 11 76 0.0 0.0 0.00 0.33 0.03 89 1012.0
20260507102506 11 76 0.0 0.0 0.00 0.33 0.03 89 1012.1
20260507102012 11 76 0.0 0.0 0.00 0.33 0.03 89 1012.0
20260507101525 11 76 0.0 0.0 0.00 0.33 0.03 89 1011.9
20260507101002 11 76 0.0 0.0 0.00 0.33 0.03 89 1011.9
20260507100506 11 76 0.0 0.0 0.00 0.33 0.03 89 1011.8
20260507100015 11 76 0.0 0.0 0.00 0.33 0.03 89 1011.9
20260507095503 11 76 0.0 0.0 0.00 0.33 0.03 90 1011.8
20260507095003 11 76 0.0 0.0 0.00 0.33 0.03 90 1011.8
20260507094518 11 76 0.0 0.0 0.00 0.33 0.03 90 1011.8
20260507094004 11 76 0.0 0.0 0.00 0.33 0.03 90 1011.8
20260507093511 11 76 0.0 0.0 0.00 0.33 0.03 90 1011.8
20260507093021 11 76 0.0 0.0 0.00 0.33 0.03 90 1011.7
20260507092507 11 76 0.0 3.2 0.00 0.33 0.03 90 1011.7
20260507092003 11 76 0.0 3.2 0.00 0.33 0.03 90 1011.6
20260507091529 11 76 0.0 3.2 0.00 0.33 0.03 90 1011.4
20260507091008 11 76 0.0 0.0 0.00 0.33 0.03 90 1011.3
20260507090507 11 77 0.0 0.0 0.00 0.33 0.03 90 1011.4
20260507090014 11 77 0.0 0.0 0.00 0.33 0.03 90 1011.4
20260507085508 11 77 0.0 0.0 0.00 0.33 0.03 90 1011.4
20260507085014 11 77 0.0 0.0 0.00 0.33 0.03 90 1011.5
20260507084534 11 77 0.0 0.0 0.00 0.33 0.03 90 1011.7
20260507084003 11 77 0.0 0.0 0.00 0.33 0.03 90 1011.5
20260507083506 11 77 0.0 1.6 0.00 0.33 0.03 90 1011.4
20260507083010 11 77 0.0 1.6 0.00 0.33 0.03 90 1011.4
20260507082504 11 76 0.0 1.6 0.00 0.33 0.03 91 1011.6
20260507082006 11 76 0.0 1.6 0.00 0.33 0.03 91 1011.6
20260507081510 11 76 0.0 1.6 0.00 0.33 0.03 90 1011.5
20260507081004 11 76 0.0 0.0 0.00 0.33 0.03 90 1011.5
20260507080504 11 76 0.0 0.0 0.00 0.33 0.03 90 1011.5
20260507080008 11 76 0.0 3.2 0.00 0.33 0.03 90 1011.3
20260507075503 11 76 0.0 3.2 0.00 0.33 0.03 89 1011.1
20260507075002 11 76 0.0 3.2 0.00 0.33 0.03 89 1011.0
20260507074512 11 76 0.0 0.0 0.00 0.33 0.03 89 1010.9
20260507074002 11 76 0.0 0.0 0.00 0.33 0.03 88 1011.1
20260507073503 12 76 0.0 0.0 0.00 0.33 0.03 88 1011.1
20260507073017 12 76 0.0 0.0 0.00 0.33 0.03 88 1011.2
20260507072503 12 76 0.0 4.8 0.00 0.33 0.03 87 1010.9
20260507072003 12 76 0.0 8.0 0.00 0.33 0.03 88 1011.0
20260507071520 12 36 0.0 14.5 0.00 0.33 0.03 88 1011.0
20260507071006 12 78 0.0 14.5 0.00 0.33 0.03 89 1011.0
20260507070503 12 42 0.0 12.9 0.00 0.33 0.03 90 1011.1
20260507070013 12 41 0.0 6.4 0.00 0.33 0.03 90 1011.1
20260507065504 12 60 1.6 6.4 0.00 0.33 0.03 91 1011.1
20260507065011 12 78 0.0 1.6 0.00 0.33 0.03 91 1011.0
20260507064511 12 78 0.0 0.0 0.00 0.33 0.03 91 1011.0
20260507064004 12 78 0.0 1.6 0.00 0.33 0.03 91 1011.1
20260507063503 12 78 0.0 1.6 0.00 0.33 0.03 91 1011.1
20260507063011 12 64 0.0 3.2 0.03 0.33 0.03 91 1011.2
20260507062502 12 64 0.0 3.2 0.03 0.33 0.03 91 1011.1
20260507062006 12 86 0.0 3.2 0.03 0.33 0.03 91 1011.2
20260507061520 12 86 0.0 3.2 0.03 0.33 0.03 90 1011.4
20260507061003 12 86 0.0 0.0 0.03 0.33 0.03 90 1011.2
20260507060503 12 86 0.0 1.6 0.03 0.33 0.03 90 1011.1
20260507060023 12 80 0.0 1.6 0.03 0.33 0.03 90 1010.8
20260507055508 12 80 0.0 3.2 0.03 0.33 0.03 90 1011.0
20260507055006 12 82 0.0 3.2 0.03 0.33 0.03 90 1010.9
20260507054520 13 84 0.0 3.2 0.03 0.33 0.03 90 1011.1
20260507054012 13 63 0.0 4.8 0.03 0.33 0.03 89 1011.1
20260507053503 13 64 0.0 4.8 0.03 0.33 0.03 89 1011.0
20260507053010 13 137 0.0 4.8 0.00 0.30 0.00 89 1011.1
20260507052504 13 158 0.0 4.8 0.00 0.30 0.00 89 1011.2
20260507052006 13 109 0.0 3.2 0.00 0.30 0.00 88 1011.1
20260507051514 13 111 0.0 3.2 0.00 0.30 0.00 88 1011.1
20260507051005 13 113 0.0 3.2 0.00 0.30 0.00 88 1011.2
20260507050506 13 67 0.0 3.2 0.00 0.30 0.00 88 1010.8
20260507050033 13 70 0.0 6.4 0.00 0.30 0.00 87 1010.5
20260507045504 13 70 0.0 8.0 0.00 0.30 0.00 86 1010.4
20260507045009 13 82 0.0 8.0 0.00 0.30 0.00 87 1010.9
20260507044526 13 93 0.0 3.2 0.00 0.30 0.00 87 1011.4
20260507044002 14 80 0.0 1.6 0.00 0.30 0.00 87 1011.4
20260507043506 14 80 0.0 6.4 0.00 0.30 0.00 86 1011.2
20260507043024 14 80 0.0 6.4 0.00 0.30 0.00 84 1010.9
20260507042504 14 80 0.0 6.4 0.00 0.30 0.00 85 1010.9
20260507042003 14 84 0.0 12.9 0.00 0.30 0.00 84 1011.4
20260507041513 15 102 1.6 12.9 0.00 0.30 0.00 84 1011.2
20260507041004 15 88 0.0 12.9 0.00 0.30 0.00 84 1011.2
20260507040505 15 53 0.0 8.0 0.00 0.30 0.00 84 1011.1
20260507040022 15 57 0.0 8.0 0.00 0.30 0.00 84 1011.0
20260507035505 15 90 0.0 3.2 0.00 0.30 0.30 84 1010.8
20260507035007 15 90 0.0 16.1 0.00 0.30 0.30 83 1010.6
20260507034520 15 90 0.0 16.1 0.00 0.30 0.30 82 1010.3
20260507034007 15 76 0.0 8.0 0.00 0.30 0.30 82 1010.4
20260507033507 15 60 1.6 8.0 0.00 0.30 0.30 83 1010.4
20260507033014 15 59 0.0 8.0 0.00 0.30 0.30 83 1010.4
20260507032505 16 76 1.6 14.5 0.00 0.30 0.30 83 1010.5
20260507032012 16 77 3.2 20.9 0.00 0.30 0.30 83 1010.3
20260507031529 16 51 3.2 20.9 0.00 0.30 0.30 83 1010.4
20260507031003 16 70 0.0 12.9 0.00 0.30 0.30 83 1010.7
20260507030504 16 323 0.0 4.8 0.00 0.30 0.30 84 1010.7
20260507030018 16 55 0.0 8.0 0.00 0.30 0.30 84 1010.5
20260507025503 16 67 1.6 8.0 0.00 0.30 0.30 85 1010.2
20260507025004 16 60 0.0 4.8 0.00 0.30 0.30 86 1009.9
20260507024521 16 57 0.0 17.7 0.00 0.30 0.30 86 1009.7
20260507024008 16 71 3.2 17.7 0.00 0.30 0.30 87 1009.5
20260507023503 16 85 6.4 12.9 0.00 0.30 0.30 88 1009.8
20260507023021 16 78 0.0 9.7 0.00 0.30 0.30 88 1010.1
20260507022511 16 65 0.0 9.7 0.00 0.30 0.30 88 1010.0
20260507022005 16 47 0.0 6.4 0.00 0.30 0.30 88 1009.8
20260507021530 17 98 0.0 6.4 0.00 0.30 0.30 89 1009.8
20260507021010 17 53 0.0 4.8 0.00 0.30 0.30 89 1009.8
20260507020511 17 49 0.0 4.8 0.00 0.30 0.30 89 1009.6
20260507020021 17 57 0.0 0.0 0.00 0.30 0.30 88 1009.7
20260507015504 17 57 0.0 0.0 0.00 0.30 0.30 88 1009.5
20260507015005 17 57 0.0 0.0 0.00 0.30 0.30 88 1009.6
20260507014514 17 56 0.0 3.2 0.00 0.30 0.30 88 1009.5
20260507014006 17 56 0.0 3.2 0.00 0.30 0.30 88 1009.5
20260507013507 17 49 0.0 4.8 0.00 0.30 0.30 88 1009.1
20260507013022 17 42 0.0 4.8 0.00 0.30 0.30 88 1009.1
20260507012503 17 83 0.0 6.4 0.00 0.30 0.30 89 1009.5
20260507012009 17 96 0.0 6.4 0.00 0.30 0.30 89 1009.8
20260507011526 17 43 0.0 6.4 0.00 0.30 0.30 90 1009.8
20260507011006 17 42 1.6 6.4 0.00 0.30 0.30 91 1009.9
20260507010508 18 155 0.0 6.4 0.00 0.30 0.30 91 1009.9
20260507010036 18 237 0.0 0.0 0.00 0.30 0.30 91 1009.7
20260507005510 18 237 0.0 3.2 0.00 0.30 0.30 91 1009.6
20260507005003 18 236 0.0 3.2 0.00 0.30 0.30 91 1009.6
20260507004521 18 250 0.0 0.0 0.00 0.30 0.30 91 1009.6
20260507004007 18 250 0.0 0.0 0.00 0.30 0.30 90 1008.9
20260507003507 18 250 0.0 0.0 0.00 0.30 0.30 90 1009.3
20260507003019 18 250 0.0 0.0 0.00 0.30 0.30 90 1009.2
20260507002507 18 250 0.0 0.0 0.00 0.30 0.30 90 1009.3
20260507002010 18 250 0.0 0.0 0.00 0.30 0.30 90 1009.0
20260507001518 18 250 0.0 0.0 0.00 0.30 0.30 89 1009.0
20260507001006 18 250 0.0 0.0 0.00 0.30 0.30 89 1008.7
20260507000509 18 250 0.0 0.0 0.00 0.30 0.30 89 1008.8
20260507000032 19 250 0.0 0.0 0.00 0.30 0.30 88 1008.8
20260506235509 19 250 0.0 0.0 0.00 0.30 0.30 88 1008.7
20260506235006 19 250 0.0 0.0 0.00 0.30 0.30 87 1008.7
20260506234528 19 250 0.0 0.0 0.00 0.30 0.30 87 1008.9
20260506234007 19 250 0.0 0.0 0.00 0.30 0.30 86 1008.7
20260506233507 19 250 0.0 0.0 0.00 0.30 0.30 85 1008.7
20260506233018 19 250 0.0 0.0 0.00 0.30 0.30 84 1008.2
20260506232506 19 250 0.0 0.0 0.00 0.30 0.30 84 1008.2
20260506232007 19 250 0.0 0.0 0.00 0.30 0.30 84 1008.1
20260506231522 20 250 0.0 0.0 0.00 0.30 0.30 84 1008.1
20260506231007 20 251 0.0 0.0 0.00 0.30 0.30 83 1008.0
20260506230507 20 251 0.0 3.2 0.00 0.30 0.30 83 1007.9
20260506230028 20 251 0.0 8.0 0.00 0.30 0.30 83 1007.9
20260506225506 20 250 0.0 8.0 0.00 0.30 0.30 83 1008.0
20260506225009 20 254 0.0 0.0 0.00 0.30 0.30 82 1008.0
20260506224521 20 251 0.0 4.8 0.00 0.30 0.30 81 1008.0
20260506224008 20 251 0.0 9.7 0.00 0.30 0.30 82 1008.0
20260506223512 20 153 0.0 11.3 0.00 0.30 0.30 80 1007.9
20260506223015 20 182 0.0 11.3 0.00 0.30 0.30 81 1007.8
20260506222506 20 338 0.0 4.8 0.00 0.30 0.30 81 1007.8
20260506222009 20 194 0.0 8.0 0.00 0.30 0.30 81 1007.9
20260506221520 20 195 0.0 8.0 0.00 0.30 0.30 82 1007.9
20260506221004 20 181 0.0 3.2 0.00 0.30 0.30 82 1007.9
20260506220508 20 244 0.0 6.4 0.00 0.30 0.30 82 1007.8
20260506220002 20 232 0.0 6.4 0.00 0.30 0.30 81 1007.8
20260506215502 20 226 0.0 16.1 0.00 0.30 0.30 81 1007.8
20260506215002 20 231 3.2 16.1 0.00 0.30 0.30 81 1007.7
20260506214505 20 148 0.0 9.7 0.00 0.30 0.30 82 1007.8
20260506214000 20 132 1.6 6.4 0.00 0.30 0.30 82 1007.8
20260506213507 20 210 0.0 14.5 0.00 0.30 0.30 82 1007.8
20260506213004 20 173 0.0 14.5 0.00 0.30 0.30 82 1007.8
20260506212505 20 284 1.6 8.0 0.00 0.30 0.30 82 1007.9
20260506212004 20 161 0.0 8.0 0.00 0.30 0.30 83 1007.7
20260506211505 20 156 0.0 19.3 0.00 0.30 0.30 82 1007.7
20260506211004 20 199 3.2 19.3 0.00 0.30 0.30 81 1007.7
20260506210504 20 237 3.2 16.1 0.00 0.30 0.30 81 1007.7
20260506210031 20 210 1.6 16.1 0.00 0.30 0.30 81 1007.7
20260506205503 20 141 1.6 16.1 0.00 0.30 0.30 81 1007.7
20260506205000 20 122 1.6 16.1 0.00 0.30 0.30 81 1007.6
20260506204512 20 205 3.2 9.7 0.00 0.30 0.30 82 1007.6
20260506204002 20 150 1.6 11.3 0.00 0.30 0.30 83 1007.4
20260506203502 20 149 0.0 12.9 0.00 0.30 0.30 83 1007.4
20260506203007 20 223 3.2 14.5 0.00 0.30 0.30 82 1007.4
20260506202506 20 221 1.6 14.5 0.00 0.30 0.30 82 1007.4
20260506202002 20 197 0.0 9.7 0.00 0.30 0.30 82 1007.5
20260506201514 20 166 1.6 9.7 0.00 0.30 0.30 82 1007.6
20260506201006 20 156 0.0 11.3 0.00 0.30 0.30 83 1007.6
20260506200504 20 142 0.0 14.5 0.00 0.30 0.30 82 1007.6
20260506200011 20 127 1.6 14.5 0.00 0.30 0.30 83 1007.6
20260506195506 20 169 0.0 12.9 0.00 0.30 0.30 84 1007.7
20260506195010 19 232 1.6 20.9 0.00 0.30 0.30 84 1007.7
20260506194504 19 212 1.6 20.9 0.00 0.30 0.30 84 1007.7
20260506194003 19 162 1.6 14.5 0.00 0.30 0.30 83 1007.7
20260506193501 19 205 1.6 14.5 0.00 0.30 0.30 84 1007.7
20260506193009 19 121 1.6 19.3 0.00 0.30 0.30 84 1007.7
20260506192505 19 169 3.2 19.3 0.00 0.30 0.30 84 1007.7
20260506192004 18 236 1.6 12.9 0.00 0.30 0.30 84 1007.7
20260506191511 18 207 1.6 14.5 0.00 0.30 0.30 83 1007.8
20260506191001 18 146 1.6 14.5 0.00 0.30 0.30 85 1007.9
20260506190505 18 221 0.0 20.9 0.00 0.30 0.30 85 1008.0
20260506190019 18 140 6.4 20.9 0.00 0.30 0.30 85 1007.9
20260506185504 18 102 1.6 9.7 0.00 0.30 0.30 85 1007.9
20260506185003 18 164 0.0 12.9 0.00 0.30 0.30 86 1008.0
20260506184517 18 130 1.6 12.9 0.00 0.30 0.30 86 1007.9
20260506184007 18 216 0.0 11.3 0.00 0.30 0.30 86 1008.0
20260506183501 17 202 0.0 11.3 0.00 0.30 0.30 87 1008.2
20260506183010 17 163 0.0 11.3 0.00 0.30 0.30 86 1008.2
20260506182501 17 223 0.0 17.7 0.00 0.30 0.30 86 1008.3
20260506182007 17 224 1.6 17.7 0.00 0.30 0.30 86 1008.2
20260506181521 17 206 1.6 12.9 0.00 0.30 0.30 87 1008.3
20260506181004 17 213 0.0 11.3 0.00 0.30 0.30 87 1008.5
20260506180505 17 207 1.6 11.3 0.00 0.30 0.30 87 1008.6
20260506180008 17 197 0.0 8.0 0.00 0.30 0.30 87 1008.5
20260506175503 17 208 0.0 8.0 0.00 0.30 0.30 87 1008.6
20260506175006 17 221 1.6 11.3 0.00 0.30 0.30 87 1008.6
20260506174519 17 215 0.0 11.3 0.00 0.30 0.30 88 1008.6
20260506174006 17 225 3.2 14.5 0.00 0.30 0.30 87 1008.7
20260506173506 17 196 1.6 17.7 0.00 0.30 0.30 89 1008.9
20260506173042 17 165 1.6 17.7 0.00 0.30 0.30 89 1008.8
20260506172507 17 231 0.0 12.9 0.00 0.30 0.30 88 1008.8
20260506172005 17 192 0.0 14.5 0.00 0.30 0.30 89 1009.0
20260506171520 17 221 3.2 14.5 0.00 0.30 0.30 88 1009.0
20260506171004 17 213 1.6 9.7 0.00 0.30 0.30 89 1008.9
20260506170504 16 32 0.0 16.1 0.00 0.30 0.30 90 1009.1
20260506170011 16 193 0.0 16.1 0.00 0.30 0.30 89 1009.1
20260506165506 16 240 1.6 14.5 0.00 0.30 0.30 90 1009.1
20260506165004 16 198 1.6 11.3 0.00 0.30 0.30 90 1008.9
20260506164513 16 173 1.6 11.3 0.00 0.30 0.30 91 1009.1
20260506164006 16 179 0.0 22.5 0.00 0.30 0.30 91 1009.1
20260506163504 16 221 1.6 22.5 0.00 0.30 0.30 91 1008.9
20260506163015 16 202 0.0 12.9 0.00 0.30 0.30 92 1008.9